Simultaneous Nadir Overpasses (SNOs) Predictions

Prediction of SNOs between AURA and NPP Satellite Orbit:

Table of predicted SNOs for the next 14.0 days since TLE Epoch: 12/21/2012
Index Date (AURA) Time (AURA) Lat,Lon (AURA) SZA (AURA ) Date (NPP) Time (NPP) Lat,Lon (NPP) SZA (NPP ) Distance(km) Time Diff (sec)
1 12/23/2012 12:14:13 79.67,-105.53 115.14 12/23/2012 12:13:13 79.67,-105.56 115.19 0.69 60
2 12/23/2012 13:03:35 -79.86, 63.51 65.13 12/23/2012 13:03:52 -79.86, 63.51 65.15 0.28 17
3 12/26/2012 04:30:41 79.76, 11.03 115.00 12/26/2012 04:30:04 79.77, 11.10 115.01 1.34 37
4 12/26/2012 05:20:03 -79.95,-179.88 65.28 12/26/2012 05:20:43 -79.95,-179.79 65.33 1.85 40
5 12/28/2012 20:47:12 79.79, 127.13 114.89 12/28/2012 20:46:57 79.79, 127.14 114.90 0.22 15
6 12/28/2012 21:36:34 -79.98, -63.76 65.40 12/28/2012 21:37:36 -79.98, -63.73 65.45 0.61 62
7 12/31/2012 12:14:24 -79.62, 74.04 64.99 12/31/2012 12:13:12 -79.61, 73.95 64.91 2.18 72
8 12/31/2012 13:03:43 79.87,-116.42 114.65 12/31/2012 13:03:48 79.88,-116.30 114.63 2.42 5
9 01/03/2013 04:30:57 -79.63,-169.99 65.18 01/03/2013 04:30:04 -79.63,-170.13 65.12 2.95 53




NCC Satellite Simultaneous Nadir Overpasses (SNOs) Prediction Service
